Total_Precipitation_Accumulation
0.18 0.21 0.28 0.46 0.57 0.48 0.37 0.36 0.45 0.42 0.40 0.45 0.52 0.61 0.58 0.52 0.51 0.50 0.48 0.44 0.43 0.44 0.43 0.43 0.43 0.44 0.52 0.66 0.82 1.00 1.24 1.24 1.11 1.05 0.98 0.84 0.77 0.77 0.73 0.75 0.73 0.74 0.83 0.93
0.12 0.12 0.16 0.27 0.31 0.26 0.19 0.23 0.33 0.38 0.45 0.50 0.56 0.62 0.56 0.47 0.39 0.33 0.31 0.30 0.30 0.29 0.27 0.24 0.24 0.25 0.27 0.38 0.56 0.72 0.90 0.99 0.98 0.89 0.78 0.74 0.74 0.70 0.66 0.65 0.61 0.59 0.62 0.69
0.13 0.11 0.15 0.23 0.22 0.22 0.24 0.25 0.28 0.40 0.52 0.55 0.67 0.84 0.74 0.56 0.45 0.32 0.26 0.25 0.25 0.24 0.24 0.22 0.22 0.22 0.24 0.31 0.39 0.48 0.63 0.74 0.75 0.69 0.62 0.60 0.63 0.60 0.54 0.49 0.50 0.47 0.47 0.47
0.23 0.25 0.36 0.33 0.25 0.31 0.41 0.34 0.33 0.43 0.50 0.59 0.90 1.10 0.72 0.48 0.43 0.35 0.25 0.23 0.23 0.23 0.21 0.19 0.19 0.19 0.22 0.25 0.28 0.32 0.39 0.47 0.48 0.47 0.48 0.49 0.50 0.48 0.46 0.43 0.42 0.41 0.46 0.52
0.33 0.35 0.53 0.44 0.24 0.35 0.42 0.38 0.30 0.39 0.46 0.48 0.52 0.46 0.29 0.19 0.19 0.21 0.16 0.15 0.14 0.14 0.12 0.11 0.11 0.12 0.13 0.16 0.19 0.19 0.21 0.25 0.27 0.29 0.35 0.41 0.42 0.45 0.52 0.52 0.49 0.49 0.59 0.65
0.29 0.31 0.39 0.37 0.17 0.21 0.30 0.38 0.18 0.19 0.22 0.18 0.13 0.14 0.15 0.14 0.10 0.09 0.08 0.08 0.08 0.07 0.06 0.06 0.07 0.08 0.08 0.10 0.12 0.13 0.13 0.15 0.19 0.21 0.26 0.34 0.40 0.42 0.41 0.40 0.45 0.52 0.53 0.49
0.23 0.24 0.19 0.14 0.12 0.15 0.32 0.34 0.14 0.11 0.09 0.06 0.06 0.06 0.09 0.13 0.09 0.07 0.06 0.06 0.06 0.06 0.06 0.07 0.07 0.08 0.07 0.07 0.09 0.12 0.15 0.17 0.20 0.22 0.25 0.29 0.28 0.25 0.28 0.31 0.32 0.32 0.33 0.38
0.18 0.21 0.17 0.10 0.12 0.16 0.17 0.10 0.08 0.07 0.06 0.06 0.05 0.04 0.05 0.08 0.07 0.05 0.05 0.05 0.06 0.07 0.09 0.08 0.08 0.09 0.09 0.10 0.12 0.14 0.16 0.17 0.18 0.17 0.18 0.19 0.20 0.20 0.21 0.24 0.27 0.29 0.31 0.34
0.20 0.20 0.17 0.13 0.12 0.09 0.07 0.07 0.05 0.05 0.05 0.05 0.04 0.03 0.03 0.04 0.04 0.03 0.04 0.07 0.08 0.10 0.15 0.16 0.12 0.10 0.11 0.13 0.15 0.16 0.16 0.16 0.18 0.18 0.18 0.15 0.14 0.18 0.23 0.24 0.26 0.27 0.30 0.35
0.19 0.15 0.14 0.12 0.10 0.07 0.05 0.05 0.04 0.04 0.03 0.03 0.04 0.04 0.03 0.03 0.04 0.04 0.04 0.07 0.11 0.15 0.18 0.22 0.18 0.14 0.13 0.13 0.14 0.15 0.14 0.16 0.18 0.18 0.19 0.16 0.15 0.16 0.18 0.20 0.22 0.26 0.31 0.36
0.17 0.14 0.13 0.12 0.10 0.07 0.05 0.03 0.03 0.04 0.02 0.02 0.02 0.03 0.03 0.03 0.03 0.03 0.04 0.05 0.09 0.16 0.18 0.18 0.18 0.18 0.16 0.15 0.13 0.13 0.14 0.16 0.16 0.19 0.21 0.17 0.14 0.14 0.16 0.18 0.24 0.30 0.33 0.36
0.18 0.14 0.15 0.13 0.10 0.08 0.07 0.04 0.03 0.04 0.03 0.02 0.02 0.02 0.02 0.03 0.03 0.04 0.04 0.06 0.09 0.11 0.14 0.15 0.15 0.17 0.15 0.15 0.14 0.13 0.14 0.15 0.15 0.15 0.15 0.17 0.17 0.15 0.15 0.17 0.21 0.26 0.29 0.31
0.17 0.16 0.14 0.12 0.10 0.09 0.09 0.06 0.03 0.03 0.04 0.03 0.03 0.02 0.03 0.04 0.05 0.06 0.06 0.06 0.08 0.09 0.10 0.12 0.13 0.13 0.13 0.12 0.12 0.10 0.12 0.13 0.13 0.13 0.12 0.13 0.16 0.20 0.21 0.19 0.16 0.17 0.20 0.27
0.13 0.14 0.14 0.11 0.09 0.09 0.09 0.06 0.04 0.03 0.04 0.04 0.04 0.04 0.05 0.05 0.06 0.06 0.07 0.07 0.08 0.10 0.09 0.09 0.11 0.12 0.12 0.11 0.11 0.11 0.13 0.12 0.13 0.15 0.16 0.16 0.17 0.23 0.33 0.38 0.32 0.21 0.21 0.23
0.08 0.10 0.12 0.12 0.11 0.10 0.09 0.07 0.05 0.05 0.05 0.05 0.05 0.05 0.06 0.06 0.07 0.07 0.07 0.08 0.09 0.09 0.09 0.09 0.10 0.12 0.11 0.10 0.11 0.11 0.13 0.15 0.18 0.23 0.22 0.20 0.20 0.28 0.33 0.27 0.25 0.26 0.25 0.23
0.07 0.07 0.09 0.11 0.12 0.11 0.10 0.09 0.07 0.07 0.06 0.07 0.07 0.07 0.07 0.08 0.09 0.10 0.08 0.08 0.08 0.08 0.08 0.09 0.09 0.12 0.12 0.10 0.10 0.10 0.10 0.15 0.19 0.26 0.26 0.19 0.21 0.25 0.24 0.23 0.26 0.28 0.27 0.26
0.08 0.08 0.10 0.12 0.13 0.12 0.13 0.12 0.10 0.09 0.08 0.09 0.09 0.09 0.09 0.09 0.10 0.10 0.09 0.09 0.07 0.07 0.08 0.08 0.08 0.10 0.12 0.12 0.11 0.11 0.12 0.15 0.17 0.23 0.25 0.21 0.21 0.24 0.23 0.23 0.26 0.28 0.28 0.31
0.09 0.09 0.11 0.13 0.14 0.15 0.16 0.15 0.12 0.10 0.09 0.10 0.10 0.11 0.10 0.11 0.12 0.11 0.11 0.11 0.09 0.08 0.10 0.11 0.11 0.11 0.12 0.12 0.12 0.12 0.13 0.15 0.16 0.19 0.22 0.21 0.21 0.23 0.26 0.24 0.24 0.25 0.28 0.30
0.12 0.13 0.14 0.15 0.17 0.16 0.16 0.16 0.14 0.12 0.12 0.12 0.13 0.13 0.11 0.13 0.14 0.12 0.13 0.12 0.11 0.12 0.12 0.14 0.15 0.14 0.14 0.14 0.13 0.14 0.15 0.17 0.17 0.18 0.20 0.20 0.19 0.19 0.23 0.25 0.24 0.25 0.27 0.27
0.17 0.17 0.18 0.20 0.19 0.17 0.17 0.16 0.15 0.15 0.15 0.16 0.18 0.17 0.16 0.15 0.14 0.15 0.16 0.15 0.13 0.15 0.17 0.18 0.16 0.17 0.17 0.16 0.17 0.16 0.18 0.19 0.20 0.21 0.22 0.22 0.23 0.23 0.24 0.23 0.26 0.29 0.30 0.28
0.21 0.19 0.18 0.19 0.19 0.18 0.18 0.17 0.18 0.18 0.18 0.20 0.23 0.24 0.24 0.22 0.22 0.21 0.20 0.20 0.19 0.19 0.20 0.21 0.18 0.19 0.21 0.21 0.22 0.21 0.22 0.23 0.24 0.25 0.27 0.28 0.28 0.29 0.28 0.28 0.30 0.33 0.30 0.29
0.20 0.19 0.19 0.19 0.20 0.20 0.18 0.18 0.19 0.21 0.23 0.25 0.27 0.26 0.26 0.27 0.27 0.26 0.25 0.26 0.26 0.28 0.25 0.22 0.22 0.26 0.30 0.30 0.25 0.24 0.24 0.26 0.28 0.29 0.30 0.32 0.32 0.31 0.32 0.31 0.31 0.31 0.30 0.31
0.18 0.18 0.20 0.21 0.20 0.19 0.20 0.20 0.20 0.21 0.23 0.25 0.26 0.26 0.27 0.26 0.25 0.24 0.27 0.29 0.30 0.33 0.30 0.29 0.32 0.35 0.37 0.31 0.28 0.28 0.28 0.30 0.31 0.31 0.33 0.35 0.36 0.36 0.36 0.37 0.36 0.34 0.34 0.35
0.18 0.19 0.20 0.20 0.20 0.22 0.23 0.21 0.20 0.21 0.21 0.22 0.22 0.23 0.25 0.28 0.27 0.25 0.28 0.33 0.37 0.37 0.32 0.34 0.37 0.38 0.37 0.30 0.28 0.27 0.28 0.31 0.32 0.32 0.34 0.37 0.38 0.38 0.38 0.38 0.38 0.38 0.38 0.38
0.18 0.19 0.19 0.20 0.21 0.22 0.22 0.21 0.20 0.20 0.20 0.21 0.21 0.21 0.23 0.26 0.30 0.31 0.32 0.34 0.38 0.41 0.37 0.38 0.39 0.36 0.31 0.30 0.31 0.30 0.30 0.33 0.37 0.39 0.39 0.40 0.41 0.41 0.41 0.42 0.43 0.44 0.44 0.44
0.20 0.20 0.19 0.19 0.21 0.23 0.23 0.24 0.24 0.22 0.23 0.24 0.23 0.23 0.27 0.30 0.30 0.32 0.35 0.39 0.41 0.43 0.40 0.38 0.37 0.36 0.33 0.34 0.36 0.36 0.36 0.37 0.39 0.40 0.41 0.43 0.44 0.44 0.45 0.46 0.47 0.48 0.50 0.51
0.23 0.21 0.21 0.22 0.23 0.25 0.27 0.29 0.30 0.30 0.30 0.29 0.28 0.27 0.32 0.38 0.36 0.35 0.36 0.40 0.43 0.44 0.44 0.44 0.43 0.44 0.46 0.46 0.46 0.44 0.42 0.40 0.38 0.40 0.43 0.46 0.48 0.48 0.48 0.48 0.49 0.51 0.53 0.54